This is the latest recevied weather packets stored in our database for station/object DJ4RO-13. If no packets are shown the sender has not sent any weather packets the latest 10 day(s).
| Time | Temp. | Humidity | Pressure | Rain* | Wind** | Luminosity | Snow |
|---|---|---|---|---|---|---|---|
| 1777460372 | 14.44° C | 30% | 1035.7 hPa | 0 mm | - | 591 W/m² | - |
| 1777460072 | 13.89° C | 31% | 1036 hPa | 0 mm | - | 592 W/m² | - |
| 1777459712 | 13.33° C | 31% | 1036 hPa | 0 mm | - | 595 W/m² | - |
| 1777459412 | 13.33° C | 31% | 1035.7 hPa | 0 mm | - | 595 W/m² | - |
| 1777459112 | 13.89° C | 30% | 1035.8 hPa | 0 mm | - | 596 W/m² | - |
| 1777458752 | 13.89° C | 31% | 1036 hPa | 0 mm | - | 595 W/m² | - |
| 1777458445 | 13.33° C | 32% | 1035.9 hPa | 0 mm | - | 594 W/m² | - |
| 1777458125 | 13.33° C | 30% | 1035.9 hPa | 0 mm | - | 597 W/m² | - |
| 1777457789 | 13.89° C | 30% | 1035.8 hPa | 0 mm | - | 594 W/m² | - |
| 1777457468 | 13.33° C | 32% | 1036.2 hPa | 0 mm | - | 589 W/m² | - |
| 1777457149 | 13.33° C | 30% | 1036.1 hPa | 0 mm | - | 588 W/m² | - |
| 1777456832 | 13.33° C | 30% | 1036.1 hPa | 0 mm | - | 586 W/m² | - |
| 1777456532 | 12.78° C | 30% | 1035.9 hPa | 0 mm | - | 582 W/m² | - |
| 1777456221 | 12.78° C | 31% | 1035.9 hPa | 0 mm | - | 579 W/m² | - |
| 1777455900 | 12.78° C | 30% | 1036 hPa | 0 mm | - | 576 W/m² | - |
| 1777455580 | 12.22° C | 30% | 1035.8 hPa | 0 mm | - | 571 W/m² | - |
| 1777455272 | 12.78° C | 32% | 1036 hPa | 0 mm | - | 568 W/m² | - |
| 1777454972 | 12.22° C | 30% | 1036 hPa | 0 mm | - | 562 W/m² | - |
| 1777454612 | 12.22° C | 31% | 1035.9 hPa | 0 mm | - | 558 W/m² | - |
| 1777454312 | 12.22° C | 30% | 1036.3 hPa | 0 mm | - | 552 W/m² | - |
| 1777454012 | 11.67° C | 33% | 1036.2 hPa | 0 mm | - | 549 W/m² | - |
| 1777453652 | 12.22° C | 30% | 1036.1 hPa | 0 mm | - | 540 W/m² | - |
| 1777453341 | 11.67° C | 31% | 1036.1 hPa | 0 mm | - | 535 W/m² | - |
| 1777453022 | 12.22° C | 32% | 1036 hPa | 0 mm | - | 528 W/m² | - |
| 1777452693 | 12.22° C | 30% | 1035.9 hPa | 0 mm | - | 520 W/m² | - |
* Rain latest hour (hover to see other rain measurements)
** Current wind speed in m/s (hover to see current wind gust speed)